Terminal Aerodrome Forecast
Issued by NWS Mt. Holly, NJ

Home | Current Version | Previous Version | Text Only | Print | Product List | Glossary On
Versions: 1 2 3 4 5 6 7 8 9 10 11 12 13 14 15 16 17 18 19 20 21 22 23 24 25 26 27 28 29 30 31 32 33 34 35 36 37 38 39 40
000
FTUS41 KPHI 182300
TAFPHL
TAF
KPHL 182320Z 1900/2006 29009KT P6SM BKN040
     FM190600 30009KT P6SM SCT040 BKN120
     FM191400 32013G19KT P6SM BKN045
     FM192200 32009KT P6SM SCT045=

USA.gov is the U.S. government's official web portal to all federal, state and local government web resources and services.